[[{"header":{"parameterUnit":"m.s-1","parameterCategory":1,"la1":30.2991,"la2":30.254,"lo1":-89.0895,"lo2":-89.0444,"dy":0.0017,"dx":0.0017,"nx":28,"ny":28,"refTime":"2024-04-20T09:00:00:Z","depth":0,"parameterNumber":2,"parameterNumberName":"U-component_of_WINDS"},"data":[0,0,0,0,0,0,0,0,0,0,0,0,0,0,0,0,0,0,0,0,0,0,0,0,0,0,0,0,0,0,0,0,0,0,0,0,0,0,0,0,0,0,0,0,0,0,0,0,0,0,0,0,0,0,0,0,0,0,0.8423,0.8423,0,0.8424,0.8424,0.8425,0.8367,0.8365,0.8364,0.8362,0.837,0.8371,0.8373,0,0,0,0,0,0,0,0,0,0,0,0,0,0.8375,0.8376,0.8423,0.8423,0.8423,0.8424,0.8424,0.8425,0.8367,0.8365,0.8363,0.8361,0.8369,0.8371,0.8373,0,0,0,0,0,0,0,0,0,0,0,0,0,0.8388,0.8376,0.8423,0.8394,0.8391,0.8424,0.8424,0.8425,0.8367,0.8365,0.8363,0.836,0.8368,0.8371,0.8373,0.8436,0,0,0.8381,0.8382,0,0,0,0,0,0,0,0,0.8387,0.839,0.8398,0.8396,0.8393,0.8393,0.841,0.8428,0.8368,0.8377,0.8362,0.8359,0.838,0.8381,0.8387,0.8436,0.8436,0.8381,0.8383,0.8384,0.8384,0,0,0,0,0,0,0,0.8386,0.8389,0.8424,0.8398,0.8395,0.8383,0.8382,0.8413,0.8392,0.8376,0.8371,0.8372,0.8378,0.8384,0.8386,0.8436,0.8381,0.8383,0.8385,0.8386,0.8537,0.8539,0,0,0,0,0,0,0.8389,0.8389,0.8423,0.8424,0.8384,0.8386,0.8385,0.8395,0.8391,0.8388,0.8374,0.837,0.8381,0.8384,0.8387,0.8458,0.8384,0.8386,0.8387,0.8534,0.8537,0.854,0,0,0,0,0,0,0.8388,0.8392,0.8423,0.8405,0.8408,0.8389,0.8401,0.8397,0.8403,0.839,0.8386,0.8385,0.838,0.8383,0.8423,0.8458,0.8387,0.8389,0.8531,0.8535,0.8538,0.8604,0,0,0,0,0,0,0.8387,0.8392,0.8414,0.8406,0.8409,0.8459,0.8403,0.8398,0.8407,0.8401,0.8398,0.8396,0.8378,0.842,0.8426,0.846,0.8391,0.8528,0.8533,0.8537,0.8598,0.8609,0.8618,0,0,0,0,0,0.8385,0.8434,0.8416,0.842,0.8436,0.8461,0.8463,0.844,0.841,0.8433,0.8424,0.8396,0.8453,0.8424,0.8431,0.8466,0.8526,0.8531,0.8537,0.8594,0.8607,0.8618,0,0,0,0,0,0,0.8449,0.8432,0.8412,0.8459,0.8462,0.8451,0.8479,0.8454,0.8467,0.8461,0.8433,0.8433,0.8478,0.8476,0.8445,0.8526,0.8484,0.8492,0.8526,0.8538,0.8548,0.8547,0.8393,0,0,0,0,0,0.8468,0.8488,0.8473,0.8516,0.8518,0.8499,0.8508,0.849,0.8492,0.8494,0.8488,0.8493,0.8512,0.8525,0.8542,0.8598,0.8597,0.8626,0.8636,0.8644,0.865,0.868,0.8693,0.8558,0.8558,0.8558,0,0,0.8509,0.8502,0.8517,0.8529,0.8528,0.8551,0.85,0.8526,0.8542,0.8498,0.8535,0.8531,0.8535,0.8583,0.8604,0.8583,0.8687,0.8651,0.8658,0.866,0.8687,0.87,0.8711,0.8562,0.8562,0.8561,0,0,0.8594,0.8591,0.8626,0.8626,0.8626,0.8612,0.8621,0.8614,0.8609,0.8645,0.8612,0.8633,0.8666,0.867,0.8676,0.8763,0.8738,0.8769,0.8822,0.8851,0.8862,0.8871,0.8902,0.8913,0.8776,0.8776,0.8776,0,0.8645,0.8675,0.8648,0.8675,0.8682,0.8641,0.8677,0.868,0.8686,0.8692,0.8668,0.8708,0.8708,0.8757,0.8777,0.8784,0.8794,0.8769,0.8862,0.8871,0.8879,0.8908,0.892,0.878,0.878,0.8779,0.8779,0,0.8738,0.876,0.8789,0.8793,0.8803,0.8835,0.8814,0.8828,0.8809,0.8799,0.8837,0.8835,0.885,0.8861,0.8843,0.8907,0.8894,0.8867,0.8824,0.8896,0.8923,0.8934,0.8785,0.8784,0.8783,0.8782,0,0,0.8863,0.8851,0.8862,0.8864,0.886,0.8877,0.8908,0.8921,0.8934,0.894,0.8965,0.8994,0.8969,0.8976,0.8959,0.8985,0.9053,0.8954,0.8954,0.8972,0.9123,0.9143,0.9157,0.9036,0.9038,0.904,0.9123,0,0.8945,0.8994,0.8971,0.9024,0.9044,0.9006,0.9033,0.9034,0.9026,0.9043,0.9034,0.9055,0.902,0.9024,0.9047,0.904,0.9083,0.9034,0.9061,0.9062,0.9061,0.9171,0.9192,0.927,0.9133,0.9135,0.9136,0,0.9047,0.9054,0.9109,0.9102,0.9109,0.9134,0.9144,0.916,0.9162,0.9154,0.9162,0.9139,0.9171,0.9128,0.9171,0.9138,0.9148,0.9147,0.9149,0.915,0.9103,0.9175,0.9295,0.9306,0.9153,0.9151,0.915,0,0.9132,0.9156,0.9192,0.9195,0.9187,0.9205,0.9203,0.9202,0.9212,0.9222,0.9228,0.9242,0.925,0.9262,0.9244,0.9215,0.929,0.9246,0.9285,0.9285,0.9302,0.9301,0.9425,0.931,0.9309,0.9309,0.9309,0,0.9225,0.926,0.923,0.9252,0.929,0.9264,0.9303,0.9297,0.9297,0.9318,0.9287,0.9308,0.9283,0.9302,0.9289,0.9327,0.9331,0.9326,0.9322,0.9329,0.9329,0.9334,0.9328,0.9312,0.9312,0.9311,0.931,0,0.9326,0.9307,0.9343,0.9333,0.9331,0.936,0.9352,0.9373,0.9362,0.9389,0.9394,0.9378,0.9399,0.9382,0.9404,0.9394,0.9444,0.9433,0.9443,0.944,0.9479,0.9476,0.961,0.9627,0.9501,0.9503,0.9504,0,0.9386,0.9412,0.9404,0.9415,0.9414,0.9433,0.9442,0.9418,0.9429,0.9433,0.9453,0.9471,0.9484,0.952,0.9511,0.9527,0.9516,0.9562,0.9518,0.9524,0.9516,0.9514,0.9517,0.9571,0.9572,0.9573,0.9574,0,0.9496,0.9485,0.9498,0.9509,0.952,0.9527,0.9532,0.9544,0.9519,0.9533,0.9553,0.9563,0.9584,0.9602,0.9615,0.9615,0.9591,0.9588,0.9598,0.9605,0.9609,0.9607,0.9467,0.9585,0.9584,0.9583,0.9583,0.9582,0.9578,0.9599,0.9596,0.9612,0.9613,0.9619,0.9637,0.9628,0.9644,0.9658,0.9643,0.9668,0.9669,0.9684,0.9687,0.9707,0.9688,0.9702,0.9706,0.9709,0.9715,0.9606,0.9709,0.9709,0.9709,0.9708,0.9708,0,0.9685,0.9681,0.9696,0.9703,0.9717,0.9691,0.9696,0.9709,0.973,0.9733,0.9746,0.9769,0.9787,0.978,0.9796,0.9813,0.9803,0.9818,0.9817,0.9817,0.9731,0.9721,0.9826,0.9826,0.9826,0.9826,0.9826,0.9826,0.9742,0.9776,0.9765,0.98,0.9796,0.9818,0.9823,0.9829,0.9831,0.9858,0.9872,0.9866,0.9865,0.9881,0.9897,0.9894,0.9902,0.9921,0.9915,0.9835,0.9823,0.9812,0.9802,0.9923,0.9923,0.9999,1.0,1.0]},{"header":{"parameterUnit":"m.s-1","parameterCategory":1,"la1":30.2991,"la2":30.254,"lo1":-89.0895,"lo2":-89.0444,"dy":0.0017,"dx":0.0017,"nx":28,"ny":28,"refTime":"2024-04-20T09:00:00:Z","depth":0,"parameterNumber":3,"parameterNumberName":"V-component_of_WINDS"},"data":[0,0,0,0,0,0,0,0,0,0,0,0,0,0,0,0,0,0,0,0,0,0,0,0,0,0,0,0,0,0,0,0,0,0,0,0,0,0,0,0,0,0,0,0,0,0,0,0,0,0,0,0,0,0,0,0,0,0,2.6447,2.6449,0,2.6613,2.6615,2.6616,2.6624,2.6622,2.662,2.6618,2.6787,2.6793,2.6799,0,0,0,0,0,0,0,0,0,0,0,0,0,2.6135,2.6141,2.6447,2.6449,2.6451,2.6612,2.6615,2.6617,2.6624,2.6622,2.662,2.6617,2.6785,2.6792,2.68,0,0,0,0,0,0,0,0,0,0,0,0,0,2.6283,2.6143,2.6446,2.6474,2.6478,2.6612,2.6615,2.6618,2.6625,2.6622,2.6619,2.6616,2.6782,2.6792,2.6801,2.6918,0,0,2.683,2.6834,0,0,0,0,0,0,0,0,2.6274,2.6294,2.6468,2.6472,2.6477,2.6595,2.6567,2.6718,2.6626,2.6569,2.6618,2.6615,2.6725,2.6739,2.6777,2.6926,2.6933,2.6831,2.6836,2.684,2.6843,0,0,0,0,0,0,0,2.6264,2.6287,2.6512,2.647,2.6476,2.6478,2.6496,2.6595,2.6662,2.6574,2.6575,2.6594,2.6727,2.6768,2.6781,2.6935,2.683,2.6839,2.6845,2.6848,2.719,2.7193,0,0,0,0,0,0,2.6248,2.6278,2.6507,2.6517,2.6366,2.6486,2.6506,2.656,2.666,2.6673,2.6597,2.6594,2.6753,2.677,2.6787,2.6931,2.684,2.6849,2.6855,2.7186,2.719,2.7194,0,0,0,0,0,0,2.6242,2.6269,2.65,2.6398,2.6428,2.6494,2.6555,2.6565,2.6605,2.6678,2.6689,2.6626,2.6751,2.6773,2.6886,2.6937,2.6853,2.6862,2.7182,2.7187,2.7192,2.7221,0,0,0,0,0,0,2.6233,2.6266,2.6312,2.6399,2.6433,2.6597,2.6558,2.657,2.6622,2.662,2.6708,2.672,2.6751,2.6871,2.6895,2.6949,2.6869,2.7178,2.7184,2.719,2.7215,2.7226,2.7235,0,0,0,0,0,2.6222,2.6313,2.6314,2.6342,2.6491,2.66,2.6619,2.6653,2.6626,2.6672,2.6719,2.6717,2.6927,2.6883,2.6909,2.6967,2.7175,2.7183,2.719,2.7211,2.7224,2.7235,0,0,0,0,0,0,2.6229,2.6325,2.6327,2.6449,2.6517,2.6601,2.666,2.6665,2.6741,2.6736,2.6774,2.6794,2.6906,2.6947,2.6896,2.7086,2.7048,2.7061,2.7055,2.7068,2.7077,2.7066,2.6877,0,0,0,0,0,2.6245,2.6326,2.6404,2.6504,2.6538,2.6593,2.6642,2.6662,2.6733,2.6761,2.6816,2.6884,2.6966,2.7019,2.7098,2.7221,2.7241,2.7273,2.7283,2.7291,2.7303,2.7372,2.7388,2.7219,2.7219,2.7219,0,0,2.6279,2.6341,2.6389,2.6508,2.6562,2.6644,2.6617,2.6705,2.6767,2.6774,2.6884,2.6927,2.7005,2.7124,2.7179,2.7162,2.7353,2.7301,2.7306,2.7314,2.7381,2.7397,2.7411,2.7224,2.7223,2.7222,0,0,2.6383,2.6437,2.6527,2.6583,2.6665,2.6702,2.6723,2.6807,2.6836,2.6947,2.6954,2.7027,2.7167,2.7223,2.727,2.7395,2.7397,2.7419,2.7472,2.7539,2.7552,2.7564,2.761,2.7626,2.743,2.743,2.743,0,2.6414,2.6539,2.6573,2.6662,2.6714,2.6724,2.6816,2.6868,2.6972,2.7007,2.6987,2.7163,2.7216,2.7349,2.7379,2.7416,2.7442,2.741,2.7547,2.756,2.7571,2.7616,2.7632,2.7433,2.7432,2.7432,2.7432,0,2.6574,2.666,2.6723,2.6824,2.6883,2.6973,2.702,2.7075,2.709,2.7128,2.7241,2.7306,2.7399,2.7431,2.7446,2.7566,2.7553,2.7539,2.7503,2.7589,2.7631,2.7648,2.7436,2.7435,2.7434,2.7434,0,0,2.6688,2.6807,2.683,2.6876,2.6968,2.7036,2.7125,2.7217,2.7264,2.7335,2.7412,2.753,2.7518,2.7571,2.7592,2.7651,2.7747,2.763,2.7633,2.7651,2.7884,2.7895,2.7914,2.7748,2.7752,2.7754,2.7878,0,2.6803,2.6964,2.6997,2.7137,2.7218,2.7229,2.7307,2.7372,2.741,2.7483,2.7525,2.7608,2.7586,2.7618,2.7677,2.7723,2.7795,2.7714,2.7821,2.7824,2.7802,2.7936,2.7948,2.8062,2.7895,2.7898,2.79,0,2.6959,2.7035,2.7183,2.7265,2.73,2.737,2.7457,2.7527,2.7601,2.7624,2.7684,2.7698,2.7792,2.775,2.788,2.7824,2.7869,2.7899,2.7904,2.7916,2.7868,2.7953,2.8099,2.8116,2.7926,2.7924,2.7922,0,2.7029,2.7168,2.7275,2.7314,2.7412,2.7462,2.7505,2.7575,2.7628,2.7704,2.7738,2.7823,2.787,2.7935,2.7972,2.7938,2.81,2.806,2.8123,2.8122,2.8158,2.8155,2.8314,2.8184,2.8184,2.8183,2.8183,0,2.7155,2.7246,2.7308,2.7374,2.7475,2.7512,2.7611,2.7654,2.7717,2.7791,2.7805,2.7874,2.7918,2.7994,2.8023,2.8127,2.8148,2.817,2.8177,2.817,2.8167,2.8201,2.8194,2.8188,2.8187,2.8186,2.8185,0,2.7252,2.7297,2.7414,2.7498,2.7521,2.7592,2.7663,2.7727,2.7765,2.7859,2.7883,2.7942,2.8032,2.8075,2.8186,2.8206,2.8324,2.8325,2.8299,2.8302,2.8363,2.8357,2.855,2.8578,2.8428,2.8429,2.843,0,2.733,2.74,2.7491,2.7542,2.7586,2.7668,2.7722,2.7761,2.7817,2.7906,2.796,2.805,2.8125,2.8267,2.832,2.8405,2.8409,2.847,2.8422,2.8413,2.8412,2.8408,2.8416,2.848,2.8481,2.8482,2.8483,0,2.7464,2.7483,2.7561,2.7648,2.7712,2.7782,2.785,2.7891,2.794,2.8002,2.8095,2.8153,2.8266,2.8356,2.8445,2.8488,2.8495,2.8498,2.8517,2.8511,2.8495,2.8506,2.8325,2.8494,2.8493,2.8492,2.8491,2.8491,2.7555,2.7618,2.7692,2.7779,2.7835,2.7898,2.7963,2.8009,2.8087,2.8183,2.8201,2.8299,2.8371,2.8491,2.8538,2.8615,2.8601,2.8628,2.8636,2.8642,2.8647,2.8481,2.8631,2.8631,2.863,2.863,2.863,0,2.7691,2.774,2.7819,2.7915,2.7983,2.7983,2.8059,2.8116,2.8202,2.8269,2.8342,2.8449,2.8536,2.8595,2.8684,2.8734,2.8739,2.8756,2.8754,2.8764,2.8653,2.8628,2.8751,2.8751,2.8751,2.8751,2.8751,2.8751,2.777,2.7878,2.7905,2.804,2.8088,2.8185,2.8228,2.8287,2.8341,2.846,2.8532,2.8571,2.8635,2.8728,2.8808,2.8823,2.8856,2.8874,2.8889,2.8784,2.8772,2.876,2.8737,2.888,2.888,2.8994,2.8995,2.8996]}]]